[[{"header":{"parameterUnit":"m.s-1","parameterCategory":1,"la1":30.2991,"la2":30.254,"lo1":-89.0895,"lo2":-89.0444,"dy":0.0017,"dx":0.0017,"nx":28,"ny":28,"refTime":"2024-06-09T09:00:00:Z","depth":0,"parameterNumber":2,"parameterNumberName":"U-component_of_WINDS"},"data":[0,0,0,0,0,0,0,0,0,0,0,0,0,0,0,0,0,0,0,0,0,0,0,0,0,0,0,0,0,0,0,0,0,0,0,0,0,0,0,0,0,0,0,0,0,0,0,0,0,0,0,0,0,0,0,0,0,0,3.9269,3.9271,0,3.9468,3.947,3.9472,3.9494,3.9492,3.949,3.9488,3.9693,3.97,3.9707,0,0,0,0,0,0,0,0,0,0,0,0,0,3.8909,3.8916,3.9269,3.9271,3.9274,3.9467,3.947,3.9473,3.9494,3.9492,3.9489,3.9487,3.969,3.9699,3.9708,0,0,0,0,0,0,0,0,0,0,0,0,0,3.9083,3.8918,3.9269,3.9308,3.9313,3.9467,3.947,3.9473,3.9495,3.9492,3.9489,3.9486,3.9688,3.9698,3.9709,3.9837,0,0,3.9743,3.9747,0,0,0,0,0,0,0,0,3.9073,3.9096,3.93,3.9305,3.9312,3.9453,3.9418,3.9595,3.9495,3.9426,3.9488,3.9484,3.9616,3.9632,3.9676,3.9847,3.9856,3.9744,3.975,3.9755,3.9758,0,0,0,0,0,0,0,3.9061,3.9087,3.9348,3.9303,3.931,3.9316,3.9337,3.9452,3.9535,3.9432,3.9434,3.9457,3.9618,3.9666,3.9681,3.9859,3.9743,3.9753,3.976,3.9764,4.0143,4.0146,0,0,0,0,0,0,3.9041,3.9077,3.9341,3.9354,3.9182,3.9325,3.9349,3.9411,3.9534,3.955,3.9459,3.9457,3.9648,3.9668,3.9688,3.9845,3.9755,3.9765,3.9772,4.0139,4.0144,4.0147,0,0,0,0,0,0,3.9033,3.9065,3.9333,3.9216,3.9251,3.9334,3.9404,3.9416,3.9463,3.9555,3.957,3.9492,3.9647,3.9673,3.98,3.9852,3.977,3.978,4.0135,4.0141,4.0146,4.016,0,0,0,0,0,0,3.9023,3.9062,3.9111,3.9217,3.9257,3.9441,3.9407,3.9422,3.9482,3.9481,3.959,3.9605,3.9646,3.9783,3.981,3.9866,3.9789,4.0131,4.0138,4.0144,4.0155,4.0165,4.0173,0,0,0,0,0,3.901,3.9108,3.9113,3.9145,3.932,3.9444,3.9467,3.9512,3.9486,3.9536,3.9595,3.9601,3.9843,3.9796,3.9827,3.9887,4.0128,4.0136,4.0143,4.0151,4.0163,4.0173,0,0,0,0,0,0,3.9007,3.9122,3.913,3.9265,3.9344,3.9447,3.9512,3.9524,3.9612,3.9608,3.9661,3.9685,3.9809,3.9861,3.9807,4.0016,3.9983,3.9997,3.9978,3.999,3.9999,3.9983,3.9798,0,0,0,0,0,3.9022,3.9112,3.9209,3.9318,3.9358,3.9428,3.9483,3.9511,3.9596,3.963,3.9698,3.978,3.9874,3.9935,4.0027,4.0163,4.0186,4.0219,4.0228,4.0236,4.0247,4.0321,4.0336,4.0173,4.0173,4.0173,0,0,3.9053,3.9128,3.9182,3.9319,3.9384,3.9476,3.9456,3.9555,3.9624,3.9645,3.9768,3.9821,3.9916,4.0047,4.0109,4.0094,4.0297,4.0246,4.025,4.0258,4.033,4.0345,4.0359,4.0178,4.0177,4.0176,0,0,3.9158,3.9224,3.9321,3.9387,3.9484,3.9531,3.9554,3.9655,3.9691,3.9815,3.9833,3.9916,4.0077,4.0144,4.0199,4.0328,4.0336,4.0357,4.0404,4.0475,4.0488,4.0499,4.0543,4.0559,4.0368,4.0368,4.0368,0,3.9185,3.9324,3.937,3.9468,3.9528,3.9551,3.965,3.9711,3.9834,3.9875,3.9857,4.0059,4.0125,4.0271,4.0302,4.0347,4.0375,4.0343,4.0482,4.0494,4.0506,4.0548,4.0565,4.0369,4.0369,4.0369,4.0369,0,3.9351,3.9448,3.9515,3.9632,3.9699,3.9797,3.9858,3.9921,3.9943,3.9991,4.0117,4.0197,4.0304,4.0341,4.0365,4.0491,4.0478,4.0471,4.0438,4.0522,4.0563,4.0579,4.0372,4.0371,4.0371,4.037,0,0,3.9458,3.9599,3.9623,3.9675,3.9785,3.986,3.9959,4.0064,4.0115,4.02,4.0283,4.0419,4.0413,4.0475,4.0506,4.0569,4.0663,4.0554,4.0557,4.0569,4.0805,4.0808,4.0826,4.067,4.0674,4.0677,4.0796,0,3.9573,3.9749,3.9793,3.9943,4.0031,4.0055,4.0141,4.0217,4.0265,4.0347,4.04,4.0494,4.0479,4.0517,4.058,4.0638,4.0711,4.0631,4.0748,4.0751,4.072,4.0848,4.0852,4.0961,4.0813,4.0815,4.0817,0,3.9731,3.9817,3.9975,4.0071,4.011,4.0187,4.0285,4.0364,4.0451,4.0481,4.055,4.0575,4.0679,4.0641,4.0784,4.0728,4.0779,4.0815,4.0821,4.0831,4.0788,4.086,4.0997,4.1012,4.0843,4.0841,4.0839,0,3.979,3.9946,4.006,4.0105,4.0221,4.0274,4.0325,4.0409,4.0468,4.0555,4.0594,4.0692,4.0745,4.082,4.0871,4.0839,4.1009,4.0976,4.1036,4.1034,4.1069,4.1065,4.1213,4.1105,4.1105,4.1105,4.1104,0,3.9912,4.0007,4.0088,4.0158,4.0265,4.0315,4.042,4.0472,4.0546,4.0627,4.0654,4.0729,4.0792,4.0876,4.0916,4.1027,4.1052,4.1078,4.1087,4.1075,4.1071,4.1107,4.11,4.1109,4.1108,4.1107,4.1106,0,3.9996,4.0053,4.0179,4.0278,4.0305,4.038,4.0465,4.0534,4.0582,4.0683,4.071,4.0786,4.0885,4.0944,4.107,4.1097,4.1219,4.1227,4.1189,4.1193,4.1248,4.1241,4.1423,4.1448,4.1325,4.1326,4.1327,0,4.0069,4.0142,4.0249,4.0304,4.0355,4.0445,4.0505,4.0558,4.062,4.0724,4.078,4.0881,4.0964,4.1122,4.1189,4.1285,4.1293,4.1351,4.1308,4.1292,4.1292,4.1285,4.1292,4.1357,4.1358,4.1359,4.136,0,4.0191,4.0216,4.0302,4.0397,4.0468,4.0546,4.0624,4.0668,4.0734,4.0802,4.0903,4.0968,4.1096,4.1195,4.1297,4.135,4.1366,4.1373,4.1391,4.1377,4.1352,4.1364,4.1206,4.1368,4.1367,4.1366,4.1366,4.1366,4.0271,4.0336,4.0421,4.0515,4.0579,4.065,4.0719,4.0776,4.0861,4.0968,4.0995,4.1101,4.1186,4.1324,4.1379,4.1463,4.1454,4.1481,4.1487,4.1493,4.1493,4.134,4.1482,4.1482,4.1482,4.1482,4.1482,0,4.0393,4.0448,4.0534,4.0641,4.0715,4.0723,4.0809,4.087,4.0963,4.1041,4.1122,4.1238,4.1334,4.1408,4.1507,4.156,4.1569,4.1584,4.1579,4.1591,4.1497,4.147,4.1574,4.1574,4.1574,4.1574,4.1574,4.1574,4.0465,4.0575,4.061,4.0752,4.0808,4.0911,4.0959,4.1025,4.1087,4.1214,4.1294,4.1342,4.1418,4.1522,4.1611,4.1631,4.1665,4.1678,4.1698,4.1608,4.1598,4.1588,4.1563,4.1685,4.1685,4.1784,4.1785,4.1786]},{"header":{"parameterUnit":"m.s-1","parameterCategory":1,"la1":30.2991,"la2":30.254,"lo1":-89.0895,"lo2":-89.0444,"dy":0.0017,"dx":0.0017,"nx":28,"ny":28,"refTime":"2024-06-09T09:00:00:Z","depth":0,"parameterNumber":3,"parameterNumberName":"V-component_of_WINDS"},"data":[0,0,0,0,0,0,0,0,0,0,0,0,0,0,0,0,0,0,0,0,0,0,0,0,0,0,0,0,0,0,0,0,0,0,0,0,0,0,0,0,0,0,0,0,0,0,0,0,0,0,0,0,0,0,0,0,0,0,0.7693,0.7694,0,0.7752,0.7753,0.7753,0.7736,0.7734,0.7733,0.7732,0.7794,0.7796,0.7799,0,0,0,0,0,0,0,0,0,0,0,0,0,0.7565,0.7568,0.7693,0.7694,0.7694,0.7752,0.7753,0.7754,0.7736,0.7734,0.7733,0.7732,0.7793,0.7796,0.7799,0,0,0,0,0,0,0,0,0,0,0,0,0,0.7622,0.7568,0.7693,0.7692,0.7693,0.7752,0.7753,0.7754,0.7736,0.7734,0.7733,0.7731,0.7792,0.7796,0.78,0.7863,0,0,0.7812,0.7814,0,0,0,0,0,0,0,0,0.7619,0.7627,0.7692,0.7693,0.7693,0.7735,0.773,0.779,0.7737,0.772,0.7732,0.773,0.7775,0.7781,0.7796,0.7865,0.7868,0.7813,0.7815,0.7817,0.7818,0,0,0,0,0,0,0,0.7615,0.7624,0.7716,0.7693,0.7694,0.769,0.7696,0.7742,0.7757,0.7721,0.772,0.7727,0.7776,0.7792,0.7797,0.7869,0.7813,0.7816,0.7819,0.7821,0.7993,0.7995,0,0,0,0,0,0,0.761,0.7621,0.7714,0.7718,0.7651,0.7693,0.77,0.7723,0.7757,0.776,0.7729,0.7726,0.7786,0.7793,0.7799,0.7875,0.7817,0.7821,0.7823,0.7991,0.7993,0.7995,0,0,0,0,0,0,0.7608,0.7619,0.7712,0.7669,0.7681,0.7698,0.7724,0.7725,0.7742,0.7763,0.7765,0.7743,0.7785,0.7794,0.7847,0.7877,0.7823,0.7827,0.7988,0.7991,0.7994,0.8027,0,0,0,0,0,0,0.7604,0.7618,0.7642,0.767,0.7683,0.7759,0.7725,0.7728,0.7749,0.7746,0.7776,0.778,0.7784,0.7841,0.7851,0.7882,0.783,0.7985,0.799,0.7993,0.8024,0.8031,0.8038,0,0,0,0,0,0.76,0.7649,0.7643,0.7655,0.7713,0.776,0.7768,0.7772,0.7752,0.7776,0.7789,0.7779,0.7872,0.7846,0.7858,0.789,0.7984,0.7988,0.7993,0.8021,0.803,0.8038,0,0,0,0,0,0,0.7625,0.7653,0.7647,0.7707,0.7731,0.7757,0.7788,0.7781,0.7812,0.7808,0.7812,0.7819,0.7873,0.7887,0.7858,0.7953,0.7925,0.7932,0.7942,0.7951,0.7958,0.7954,0.7833,0,0,0,0,0,0.7638,0.7673,0.7696,0.7746,0.7759,0.7771,0.7792,0.7793,0.7818,0.7829,0.7846,0.7871,0.7906,0.7929,0.7962,0.8025,0.8032,0.8053,0.806,0.8066,0.8072,0.8106,0.8116,0.801,0.801,0.801,0,0,0.7664,0.7684,0.7706,0.7752,0.7771,0.7808,0.778,0.7821,0.7848,0.7835,0.7886,0.79,0.7928,0.7986,0.8013,0.8,0.8103,0.8072,0.8076,0.808,0.8112,0.8122,0.8131,0.8014,0.8013,0.8013,0,0,0.7731,0.7749,0.7794,0.7813,0.7842,0.785,0.7861,0.7888,0.7896,0.7947,0.7938,0.7971,0.8031,0.8052,0.807,0.8144,0.8136,0.8155,0.8192,0.8225,0.8234,0.8241,0.8268,0.8277,0.8161,0.8161,0.8161,0,0.7761,0.7816,0.7818,0.7859,0.7879,0.7868,0.7913,0.7932,0.7971,0.7985,0.7969,0.8045,0.8063,0.8126,0.8144,0.8159,0.8172,0.8152,0.8232,0.824,0.8247,0.8272,0.8282,0.8163,0.8163,0.8163,0.8163,0,0.785,0.7888,0.7921,0.7958,0.7982,0.8025,0.8034,0.8058,0.8056,0.8066,0.8118,0.814,0.8177,0.8192,0.8191,0.8255,0.8246,0.8231,0.8203,0.8259,0.8283,0.8293,0.8166,0.8166,0.8165,0.8164,0,0,0.7936,0.7973,0.7985,0.8002,0.8032,0.8062,0.8104,0.8141,0.8161,0.8188,0.8224,0.8274,0.8261,0.8282,0.8283,0.8312,0.837,0.8294,0.8295,0.8307,0.8441,0.8453,0.8464,0.8364,0.8366,0.8367,0.8439,0,0.8006,0.808,0.8083,0.8151,0.8186,0.8176,0.8212,0.8235,0.8245,0.8277,0.8287,0.8324,0.8303,0.8315,0.8344,0.8357,0.8397,0.8351,0.8397,0.8399,0.8391,0.8476,0.8489,0.8556,0.8449,0.845,0.8451,0,0.8098,0.8127,0.8198,0.8223,0.8238,0.8271,0.8305,0.8335,0.8361,0.8366,0.8389,0.8385,0.8428,0.8398,0.8458,0.8427,0.8446,0.8455,0.8458,0.8463,0.8429,0.8484,0.8577,0.8587,0.8466,0.8465,0.8464,0,0.8153,0.821,0.826,0.8275,0.8306,0.8329,0.8343,0.8367,0.8388,0.8418,0.8432,0.8465,0.8484,0.851,0.8516,0.8494,0.8576,0.8546,0.8581,0.8581,0.86,0.8599,0.8697,0.8611,0.8611,0.8611,0.861,0,0.8231,0.8275,0.8286,0.8317,0.8365,0.8368,0.8417,0.8429,0.845,0.8483,0.8476,0.8507,0.8513,0.8545,0.855,0.8598,0.8607,0.8612,0.8613,0.8613,0.8613,0.8626,0.8622,0.8613,0.8613,0.8612,0.8612,0,0.8302,0.8311,0.8365,0.8389,0.8396,0.8431,0.8453,0.8482,0.8491,0.8533,0.8543,0.8556,0.8594,0.8602,0.8647,0.865,0.8708,0.8704,0.8699,0.8699,0.8734,0.8731,0.8845,0.8861,0.8764,0.8765,0.8765,0,0.8352,0.8385,0.8413,0.8435,0.845,0.8485,0.8507,0.851,0.8533,0.8565,0.8591,0.8627,0.8657,0.8718,0.8732,0.8766,0.8763,0.8801,0.8768,0.8767,0.8764,0.8762,0.8766,0.8807,0.8808,0.8809,0.881,0,0.8439,0.8441,0.8473,0.8506,0.8532,0.8559,0.8584,0.8602,0.8609,0.8635,0.8674,0.8697,0.8742,0.8779,0.8813,0.8827,0.882,0.882,0.883,0.8831,0.8827,0.883,0.8717,0.8817,0.8817,0.8816,0.8816,0.8815,0.8501,0.853,0.8554,0.859,0.8609,0.8632,0.8661,0.8674,0.8706,0.8743,0.8743,0.8785,0.8809,0.8854,0.8871,0.8903,0.8892,0.8906,0.891,0.8914,0.8917,0.8821,0.891,0.8909,0.8909,0.8909,0.8909,0,0.8588,0.8603,0.8635,0.867,0.8698,0.8688,0.8716,0.874,0.8777,0.88,0.8829,0.8873,0.8909,0.8925,0.896,0.8983,0.8981,0.8992,0.8991,0.8994,0.8925,0.8913,0.8994,0.8994,0.8994,0.8994,0.8994,0.8994,0.8636,0.8685,0.8691,0.8749,0.8764,0.8805,0.8821,0.8843,0.8861,0.8911,0.894,0.8951,0.8971,0.9008,0.904,0.9044,0.9057,0.907,0.9073,0.9008,0.8999,0.8991,0.898,0.9073,0.9073,0.9139,0.914,0.914]}]]